• In Uzbekistan
  • List of Countries
  • For 7 days
  • Water Temperature
  • Satellite Maps
  • Weather Map
  • Weather Widgets
  • user-avatar
    Login

    Hourly Weather Ghanzi

    Today, 21 January, Sunday

    Time Temperature Precipitation Wind Pressure Humidity
    00:00 +13°C° 0 mm 3 mps 716 mmHg 17%
    01:00 +13°C° 0 mm 2 mps 716 mmHg 18%
    02:00 +12°C° 0 mm 2 mps 716 mmHg 19%
    03:00 +12°C° 0 mm 2 mps 715 mmHg 20%
    04:00 +10°C° 0 mm 2 mps 715 mmHg 21%
    05:00 +10°C° 0 mm 2 mps 715 mmHg 21%
    06:00 +10°C° 0 mm 2 mps 716 mmHg 21%
    07:00 +12°C° 0 mm 2 mps 716 mmHg 21%
    08:00 +14°C° 0 mm 2 mps 716 mmHg 18%
    09:00 +17°C° 0 mm 2 mps 717 mmHg 16%
    10:00 +19°C° 0 mm 2 mps 718 mmHg 13%
    11:00 +21°C° 0 mm 2 mps 717 mmHg 12%
    12:00 +23°C° 0 mm 1 mps 717 mmHg 11%
    13:00 +24°C° 0 mm 1 mps 716 mmHg 9%
    14:00 +25°C° 0 mm 2 mps 716 mmHg 9%
    15:00 +25°C° 0 mm 3 mps 716 mmHg 9%
    16:00 +25°C° 0 mm 4 mps 716 mmHg 9%
    17:00 +22°C° 0 mm 4 mps 716 mmHg 11%
    18:00 +20°C° 0 mm 4 mps 716 mmHg 12%
    19:00 +18°C° 0 mm 4 mps 717 mmHg 14%
    20:00 +17°C° 0 mm 4 mps 717 mmHg 15%
    21:00 +16°C° 0 mm 5 mps 717 mmHg 16%
    22:00 +15°C° 0 mm 5 mps 718 mmHg 18%
    23:00 +14°C° 0 mm 5 mps 717 mmHg 19%

    Tomorrow, 22 January, Monday

    Time Temperature Precipitation Wind Pressure Humidity
    00:00 +13°C° 0 mm 5 mps 717 mmHg 21%
    01:00 +13°C° 0 mm 5 mps 717 mmHg 23%
    02:00 +12°C° 0 mm 5 mps 717 mmHg 24%
    03:00 +10°C° 0 mm 5 mps 717 mmHg 25%
    04:00 +10°C° 0 mm 5 mps 717 mmHg 27%
    05:00 +10°C° 0 mm 5 mps 718 mmHg 28%
    06:00 +9°C° 0 mm 5 mps 718 mmHg 29%
    07:00 +9°C° 0 mm 5 mps 719 mmHg 30%
    08:00 +12°C° 0 mm 5 mps 719 mmHg 30%
    09:00 +15°C° 0 mm 6 mps 720 mmHg 31%
    10:00 +17°C° 0 mm 7 mps 720 mmHg 31%
    11:00 +18°C° 0 mm 7 mps 720 mmHg 29%
    12:00 +20°C° 0 mm 7 mps 719 mmHg 26%
    13:00 +21°C° 0 mm 6 mps 718 mmHg 24%
    14:00 +21°C° 0 mm 6 mps 718 mmHg 24%
    15:00 +21°C° 0 mm 6 mps 718 mmHg 23%
    16:00 +21°C° 0 mm 6 mps 717 mmHg 23%
    17:00 +19°C° 0 mm 5 mps 718 mmHg 26%
    18:00 +17°C° 0 mm 5 mps 718 mmHg 29%
    19:00 +15°C° 0 mm 4 mps 719 mmHg 32%
    20:00 +14°C° 0 mm 4 mps 719 mmHg 33%
    21:00 +14°C° 0 mm 4 mps 719 mmHg 34%
    22:00 +13°C° 0 mm 4 mps 719 mmHg 36%
    23:00 +12°C° 0 mm 4 mps 719 mmHg 38%

    Day after tomorrow, 23 January, Tuesday

    Time Temperature Precipitation Wind Pressure Humidity
    00:00 +11°C° 0 mm 4 mps 719 mmHg 41%
    01:00 +11°C° 0 mm 4 mps 719 mmHg 43%
    02:00 +10°C° 0 mm 3 mps 719 mmHg 46%
    03:00 +10°C° 0 mm 3 mps 718 mmHg 49%
    04:00 +10°C° 0 mm 3 mps 718 mmHg 51%
    05:00 +10°C° 0 mm 3 mps 719 mmHg 52%
    06:00 +10°C° 0 mm 3 mps 719 mmHg 53%
    07:00 +10°C° 0 mm 3 mps 719 mmHg 53%
    08:00 +12°C° 0 mm 4 mps 720 mmHg 47%
    09:00 +15°C° 0 mm 4 mps 720 mmHg 41%
    10:00 +17°C° 0 mm 5 mps 721 mmHg 35%
    11:00 +19°C° 0 mm 5 mps 720 mmHg 32%
    12:00 +20°C° 0 mm 5 mps 719 mmHg 30%
    13:00 +21°C° 0 mm 5 mps 718 mmHg 27%
    14:00 +21°C° 0 mm 5 mps 718 mmHg 27%
    15:00 +22°C° 0 mm 5 mps 717 mmHg 26%
    16:00 +22°C° 0 mm 4 mps 717 mmHg 26%
    17:00 +20°C° 0 mm 4 mps 717 mmHg 30%
    18:00 +18°C° 0 mm 4 mps 718 mmHg 34%
    19:00 +17°C° 0 mm 3 mps 718 mmHg 38%
    20:00 +16°C° 0 mm 3 mps 718 mmHg 41%
    21:00 +14°C° 0 mm 3 mps 718 mmHg 44%
    22:00 +13°C° 0 mm 3 mps 718 mmHg 47%
    23:00 +13°C° 0 mm 3 mps 718 mmHg 51%

    24 January, Wednesday

    Time Temperature Precipitation Wind Pressure Humidity
    00:00 +12°C° 0 mm 3 mps 718 mmHg 54%
    01:00 +12°C° 0 mm 3 mps 718 mmHg 58%
    02:00 +11°C° 0 mm 3 mps 717 mmHg 61%
    03:00 +11°C° 0 mm 4 mps 717 mmHg 64%
    04:00 +10°C° 0 mm 4 mps 717 mmHg 67%
    05:00 +10°C° 0 mm 3 mps 718 mmHg 69%
    06:00 +10°C° 0 mm 3 mps 718 mmHg 70%
    07:00 +10°C° 0 mm 3 mps 719 mmHg 71%
    08:00 +12°C° 0 mm 4 mps 719 mmHg 62%
    09:00 +15°C° 0 mm 4 mps 719 mmHg 54%
    10:00 +18°C° 0 mm 4 mps 719 mmHg 45%
    11:00 +19°C° 0 mm 4 mps 719 mmHg 41%
    12:00 +20°C° 0 mm 4 mps 718 mmHg 36%
    13:00 +21°C° 0 mm 4 mps 717 mmHg 31%
    14:00 +21°C° 0 mm 4 mps 717 mmHg 30%
    15:00 +21°C° 0 mm 5 mps 717 mmHg 29%
    16:00 +22°C° 0 mm 5 mps 716 mmHg 28%
    17:00 +20°C° 0 mm 5 mps 717 mmHg 32%
    18:00 +18°C° 0 mm 4 mps 717 mmHg 36%
    19:00 +17°C° 0 mm 4 mps 717 mmHg 40%
    20:00 +15°C° 0 mm 4 mps 718 mmHg 44%
    21:00 +15°C° 0 mm 4 mps 718 mmHg 47%
    22:00 +14°C° 0 mm 5 mps 718 mmHg 50%
    23:00 +13°C° 0 mm 5 mps 718 mmHg 54%

    25 January, Thursday

    Time Temperature Precipitation Wind Pressure Humidity
    00:00 +13°C° 0 mm 4 mps 718 mmHg 58%
    01:00 +12°C° 0 mm 4 mps 718 mmHg 62%
    02:00 +11°C° 0 mm 4 mps 718 mmHg 65%
    03:00 +11°C° 0 mm 4 mps 718 mmHg 68%
    04:00 +10°C° 0 mm 4 mps 718 mmHg 72%
    05:00 +10°C° 0 mm 4 mps 718 mmHg 74%
    06:00 +9°C° 0 mm 5 mps 719 mmHg 76%
    07:00 +9°C° 0 mm 5 mps 719 mmHg 79%
    08:00 +11°C° 0 mm 6 mps 719 mmHg 71%
    09:00 +14°C° 0 mm 7 mps 720 mmHg 64%
    10:00 +16°C° 0 mm 7 mps 720 mmHg 56%
    11:00 +17°C° 0 mm 7 mps 720 mmHg 50%
    12:00 +18°C° 0 mm 7 mps 719 mmHg 43%
    13:00 +20°C° 0 mm 7 mps 719 mmHg 36%
    14:00 +20°C° 0 mm 7 mps 719 mmHg 34%
    15:00 +18°C° 0 mm 7 mps 718 mmHg 32%
    16:00 +18°C° 0 mm 7 mps 718 mmHg 30%
    17:00 +16°C° 0 mm 7 mps 719 mmHg 33%
    18:00 +15°C° 0 mm 6 mps 719 mmHg 36%
    19:00 +13°C° 0 mm 5 mps 719 mmHg 39%
    20:00 +12°C° 0 mm 5 mps 720 mmHg 40%
    21:00 +12°C° 0 mm 5 mps 720 mmHg 40%
    22:00 +10°C° 0 mm 5 mps 720 mmHg 41%
    23:00 +9°C° 0 mm 5 mps 720 mmHg 42%

    26 January, Friday

    Time Temperature Precipitation Wind Pressure Humidity
    00:00 +8°C° 0 mm 5 mps 720 mmHg 43%
    01:00 +7°C° 0 mm 5 mps 720 mmHg 44%
    02:00 +7°C° 0 mm 5 mps 720 mmHg 47%
    03:00 +6°C° 0 mm 5 mps 720 mmHg 49%
    04:00 +6°C° 0 mm 5 mps 720 mmHg 52%
    05:00 +6°C° 0 mm 4 mps 720 mmHg 53%
    06:00 +5°C° 0 mm 4 mps 721 mmHg 54%
    07:00 +5°C° 0 mm 4 mps 721 mmHg 55%
    08:00 +7°C° 0 mm 5 mps 721 mmHg 47%
    09:00 +10°C° 0 mm 5 mps 721 mmHg 40%
    10:00 +13°C° 0 mm 5 mps 722 mmHg 32%
    11:00 +14°C° 0 mm 5 mps 721 mmHg 28%
    12:00 +15°C° 0 mm 4 mps 720 mmHg 25%
    13:00 +18°C° 0 mm 4 mps 720 mmHg 21%
    14:00 +18°C° 0 mm 4 mps 719 mmHg 20%
    15:00 +18°C° 0 mm 4 mps 719 mmHg 19%
    16:00 +17°C° 0 mm 5 mps 719 mmHg 17%
    17:00 +17°C° 0 mm 4 mps 719 mmHg 20%
    18:00 +14°C° 0 mm 4 mps 719 mmHg 22%
    19:00 +12°C° 0 mm 4 mps 719 mmHg 24%
    20:00 +11°C° 0 mm 4 mps 719 mmHg 26%
    21:00 +10°C° 0 mm 4 mps 720 mmHg 27%
    22:00 +10°C° 0 mm 4 mps 720 mmHg 29%
    23:00 +8°C° 0 mm 4 mps 720 mmHg 30%
    Show more